Regional Weather Roundup
Issued by NWS

Home | Current Version | Previous Version | Text Only | Print | Product List | Glossary On
Versions: 1 2 3 4 5 6 7 8 9 10 11 12 13 14 15 16 17 18 19 20 21 22 23 24 25 26 27 28 29 30 31 32 33 34 35 36 37 38 39 40 41 42 43 44 45 46 47 48 49 50
000
ASUS44 KFWD 202203
RWRTX
NORTH TEXAS HOURLY WEATHER ROUNDUP
NATIONAL WEATHER SERVICE FORT WORTH TX
500 PM CDT SUN AUG 20 2017

NOTE: "FAIR" INDICATES FEW OR NO CLOUDS BELOW 12,000 FEET WITH NO
SIGNIFICANT WEATHER AND/OR OBSTRUCTIONS TO VISIBILITY.

TXZ118-119-202300-
DALLAS/FORT WORTH METROPLEX

CITY           SKY/WX    TMP DP  RH WIND       PRES   REMARKS
DFW AIRPORT    MOSUNNY   96  71  44 E12       29.93F HX 103
DALLAS LOVE    MOSUNNY   97  67  37 S12       29.94F HX 101
FTW MEACHAM    MOSUNNY   97  70  41 SE12      29.93F HX 103
DAL-EXECUTIVE  MOSUNNY   96  70  42 SE12G18   29.94F HX 102
FTW-ALLIANCE   PTSUNNY   97  69  40 VRB7G17   29.94F HX 103
FTW-NAS-JRB    CLOUDY    98  65  33 SE13      29.94F HX 101
FTW-SPINKS     MOSUNNY   99  63  30 SE9       29.95F HX 100
ARLINGTON      MOSUNNY   96  68  39 SE7       29.94F HX 101
GRAND PRAIRIE  SUNNY     97  63  32 E7        29.95F HX  98
ADDISON        MOSUNNY   95  68  41 SE10G18   29.96F HX  99
MESQUITE       MOSUNNY   95  68  41 SE9       29.96S HX  99
LANCASTER      SUNNY     96  68  39 E10G16    29.95F HX 101
$$

TXZ091>094-102>105-117-120-121-131>134-202300-
NORTH CENTRAL TEXAS

CITY           SKY/WX    TMP DP  RH WIND       PRES   REMARKS
SHRMAN/DENISON MOSUNNY   92  70  48 SE12      29.97F HX  98
GAINESVILLE    SUNNY     94  67  42 SE10G16   29.98S HX  97
BOWIE          SUNNY     93  69  44 SE8       29.97S HX  98
BRIDGEPORT     SUNNY     95  67  38 SE10      29.97S HX  99
DECATUR        MOSUNNY   95  68  40 S6          N/A  HX  99
DENTON         MOSUNNY   96  71  44 SE12      29.94F HX 103
MCKINNEY       SUNNY     93  73  52 SE10      29.96F HX 102
BONHAM         MOSUNNY   93  72  49 SE8       29.97S HX 100
ROCKWALL       SUNNY     93  72  50 S12G17    29.97S HX 101
TERRELL        MOSUNNY   95  70  44 SE12      29.97S HX 101
WAXAHACHIE     MOSUNNY   93  69  46 E3        29.96S HX  98
CLEBURNE       SUNNY     97  66  36 S10G16    29.97S HX 100
GRANBURY       SUNNY     97  65  35 SE7       29.95F HX 100
$$

TXZ083>090-098>101-113>116-127>130-139>142-154-155-202300-
WESTERN NORTH TEXAS

CITY           SKY/WX    TMP DP  RH WIND       PRES   REMARKS
WICHITA FALLS  MOSUNNY   95  65  37 S14       29.92F HX  97
WF-KICKAPOO    SUNNY     97  66  36 S15       29.95F HX 101
VERNON         SUNNY     97  61  29 S15G21    29.93F HX  97
ABILENE        SUNNY     94  62  34 SE10      29.97F HX  94
ABILENE-DYESS  SUNNY     95  65  36 S14       29.95F HX  98
BRECKENRIDGE   SUNNY     99  57  25 SE16      29.95F HX  97
CISCO          SUNNY     97  59  28 SE14      29.97F HX  96
EASTLAND       SUNNY     96  60  29 SE13      29.96F HX  96
RANGER         SUNNY     94  62  35 SE8G16    29.97F HX  94
MINERAL WELLS  MOSUNNY   97  66  36 SE12      29.94F HX 100
STEPHENVILLE   SUNNY     94  64  36 SE10      30.00S HX  95
COMANCHE       MOSUNNY  100  60  26 S7G20     29.96F HX 100
COLEMAN        SUNNY     97  55  23 SE13G20   29.97F HX  95
$$

TXZ143>147-156>162-174-175-202300-
CENTRAL TEXAS

CITY           SKY/WX    TMP DP  RH WIND       PRES   REMARKS
WACO           SUNNY     98  64  32 S9        29.93F HX 100
WACO-TSTC      MOSUNNY   99  64  32 S13       29.93F HX 101
WACO-MCGREGOR  MOSUNNY  100  66  32 S8G20     29.94F HX 104
HILLSBORO      MOSUNNY   98  68  36 SE8       29.95S HX 103
CORSICANA      MOSUNNY   98  67  36 SE8       29.96F HX 102
MEXIA          PTSUNNY   98  65  34 S10       29.94S HX 100
HEARNE         SUNNY     97  67  37 SE6       29.95S HX 101
CAMERON        SUNNY     98  68  37 S7        29.94S HX 103
TEMPLE         SUNNY     98  66  34 SE10G16   29.95F HX 101
KILLEEN        SUNNY     96  63  34 E14       29.94F HX  97
KILLEEN-SKYLRK SUNNY     98  68  37 S7        29.95F HX 103
FORT HOOD      SUNNY     96  64  34 SE8       29.92F HX  98
HAMILTON       MOSUNNY   97  62  30 S8        29.98F HX  98
LAMPASAS       SUNNY     96  66  37 SE14      29.96S HX  99
$$

TXZ095>097-106>112-122>126-135>138-148>153-164>167-202300-
EAST TEXAS

CITY           SKY/WX    TMP DP  RH WIND       PRES   REMARKS
PARIS          SUNNY     95  74  50 S8        29.99R HX 105
SULPHUR SPRNGS MOSUNNY   94  71  47 S10       29.99S HX 102
MOUNT PLEASANT SUNNY     94  71  46 SE6       29.99S HX 101
GILMER         MOSUNNY   93  74  53 E3        29.98S HX 102
MINEOLA        MOSUNNY   91  75  59 SE5       29.98R HX 102
TYLER          SUNNY     94  70  45 S9        29.98R HX 100
LONGVIEW       MOSUNNY   95  74  50 CALM      29.97R HX 105
MARSHALL         N/A     83  76  78 E7        30.03R HX  91
ATHENS         SUNNY     91  70  49 E6        29.96S HX  97
PALESTINE      MOSUNNY   97  69  40 SE3       29.97S HX 102
JACKSONVILLE   SUNNY     94  69  44 SE5       30.01S HX 100
HENDERSON      MOSUNNY   91  71  51 S3        29.99R HX  97
CENTER         DRIZZLE   84  78  81 SE7       30.04R HX  94
NACOGDOCHES    MOSUNNY   93  73  52 SE12G17   29.98S HX 102
LUFKIN         PTSUNNY   92  73  53 E7        29.96S HX 100
$$

SUPPLEMENTAL OBSERVATIONS (NWS FORT WORTH AREA)

CITY           SKY/WX    TMP DP  RH WIND       PRES   REMARKS
$$

SUPPLEMENTAL OBSERVATIONS (NWS NORMAN AREA)

CITY           SKY/WX    TMP DP  RH WIND       PRES   REMARKS
GOODLETT         N/A     96  61  31 S16       29.93S HX  96
ODELL            N/A     96  68  40 SE13      29.95S HX 101
CROWELL          N/A     96  69  41 SE12      29.94F HX 101
KNOX CITY        N/A     97  59  28 SE14      29.94F HX  97
SEYMOUR          N/A     97  63  32 SE14      29.94F HX  98
$$

SUPPLEMENTAL OBSERVATIONS (NWS SAN ANGELO AREA)

CITY           SKY/WX    TMP DP  RH WIND       PRES   REMARKS
WEINERT          N/A    100  62  29 S13       29.94F HX 101
HASKELL          N/A     95  56  27 SE10      29.95F HX  94
THROCKMORTON     N/A     96  68  40 SE10      29.96F HX 100
STAMFORD         N/A     97  64  33 SE10      29.95F HX  98
CLYDE            N/A     95  63  34 S13       30.00F HX  96
$$

SUPPLEMENTAL OBSERVATIONS (NWS SHREVEPORT AREA)

CITY           SKY/WX    TMP DP  RH WIND       PRES   REMARKS
$$

SUPPLEMENTAL OBSERVATIONS ARE A COLLECTION OF AUTOMATED INSTRUMENTS
THAT ARE MAINTAINED BY A VARIETY OF FEDERAL AND STATE AGENCIES.
CERTAIN ELEMENTS...SUCH AS HUMIDITY VALUES AND SUSTAINED WIND
SPEEDS...MAY BE APPROXIMATED.





USA.gov is the U.S. government's official web portal to all federal, state and local government web resources and services.